Date String (YYYY-MM-DD hh:mm:ss) UTC,Instrument flags,absolute air pressure of the measurement (hPa),sample flow rate (lpm),inlet stack bypass flow (lpm),air temperature of the measurement (°C),ambient temperature measured by the external sensor (°C),aerosol sample conditioner tube jacket temperature (°C),OPC LED temperature (°C),internal box temperature (°C),relative humidity of the measurement (%),span deviation,mass concentration of particles derived from Lorenz-Mie calculation of OPC scattering (μg/m³),mass concentration of particles derived from Lorenz-Mie calculation of OPC scattering (μg/m³),mass concentration of particles derived from Lorenz-Mie calculation of OPC scattering (μg/m³)
DateTimeUTC,F1_M11,P_M11,Q1_M11,Q2_M11,T1_M11,T2_M11,T3_M11,T4_M11,T5_M11,U1_M11,ZSPAN_M11,X2_M11,X0_M11,X1_M11
2023-08-22 22:00:00,SystemResetWarning,0833.9,4.99,000.00,027.5,024.8,000.0,035.7,029.0,21.8,0001.5,0008.52,0016.68,0007.44
2023-08-22 22:01:00,SystemResetWarning,0834.0,5.00,000.00,027.5,025.2,000.0,035.7,029.2,22.1,0001.5,0008.36,0016.52,0007.31
2023-08-22 22:02:00,SystemResetWarning,0833.9,5.01,000.00,027.5,025.7,000.0,035.8,029.3,21.4,0001.4,0008.18,0015.70,0007.17
2023-08-22 22:03:00,SystemResetWarning,0833.9,5.00,000.00,027.6,026.0,000.0,035.8,029.4,21.4,0001.4,0008.09,0014.88,0007.08
2023-08-22 22:04:00,SystemResetWarning,0833.9,4.99,000.00,027.6,025.2,000.0,035.8,029.2,21.2,0001.7,0007.96,0014.66,0006.99
2023-08-22 22:05:00,SystemResetWarning,0834.0,4.99,000.00,027.5,024.1,000.0,035.7,028.9,21.3,0001.8,0007.87,0014.96,0006.92
2023-08-22 22:06:00,SystemResetWarning,0833.9,5.01,000.00,027.5,024.4,000.0,035.6,029.0,21.4,0001.7,0007.76,0015.50,0006.83
2023-08-22 22:07:00,SystemResetWarning,0833.9,5.00,000.00,027.5,024.8,000.0,035.7,029.0,21.7,0001.5,0007.66,0015.97,0006.73
2023-08-22 22:08:00,SystemResetWarning,0833.9,5.01,000.00,027.5,025.2,000.0,035.7,029.1,21.7,0001.6,0007.54,0015.66,0006.64
2023-08-22 22:09:00,SystemResetWarning,0833.9,5.00,000.00,027.5,025.7,000.0,035.8,029.3,21.5,0001.6,0007.49,0015.61,0006.56
2023-08-22 22:10:00,SystemResetWarning,0833.9,5.00,000.00,027.6,026.1,000.0,035.8,029.4,21.5,0001.5,0007.42,0015.54,0006.51
2023-08-22 22:11:00,SystemResetWarning,0834.0,4.99,000.00,027.7,026.0,000.0,035.8,029.4,21.8,0001.6,0007.45,0015.61,0006.52
2023-08-22 22:12:00,SystemResetWarning,0833.8,5.00,000.00,027.6,024.7,000.0,035.7,029.1,22.1,0001.5,0007.53,0015.52,0006.58
2023-08-22 22:13:00,SystemResetWarning,0833.9,5.01,000.00,027.5,024.3,000.0,035.6,029.0,21.7,0001.2,0007.64,0015.75,0006.66
2023-08-22 22:14:00,SystemResetWarning,0833.9,5.00,000.00,027.5,024.7,000.0,035.7,029.0,21.5,0001.3,0007.66,0016.13,0006.72
2023-08-22 22:15:00,SystemResetWarning,0833.9,5.00,000.00,027.5,025.1,000.0,035.7,029.1,21.5,0001.1,0007.76,0016.81,0006.78
2023-08-22 22:16:00,SystemResetWarning,0833.9,5.01,000.00,027.5,025.6,000.0,035.8,029.2,21.5,0001.2,0007.81,0016.33,0006.83
2023-08-22 22:17:00,SystemResetWarning,0833.8,5.00,000.00,027.6,026.0,000.0,035.8,029.4,21.8,0001.0,0007.84,0016.21,0006.87
2023-08-22 22:18:00,SystemResetWarning,0833.8,4.99,000.00,027.7,025.8,000.0,035.8,029.4,22.1,0000.9,0007.85,0016.04,0006.91
2023-08-22 22:19:00,SystemResetWarning,0833.8,4.99,000.00,027.6,024.4,000.0,035.7,029.1,22.4,0001.1,0007.89,0015.98,0006.96
2023-08-22 22:20:00,SystemResetWarning,0834.0,5.02,000.00,027.5,024.1,000.0,035.6,029.0,22.4,0001.1,0007.90,0015.28,0007.00
2023-08-22 22:21:00,SystemResetWarning,0833.8,5.00,000.00,027.5,024.5,000.0,035.7,029.0,23.4,0001.2,0007.90,0015.71,0007.03
2023-08-22 22:22:00,SystemResetWarning,0833.8,5.00,000.00,027.5,025.0,000.0,035.7,029.0,22.6,0001.1,0007.87,0015.34,0007.02
2023-08-22 22:23:00,SystemResetWarning,0833.8,5.00,000.00,027.5,025.4,000.0,035.8,029.2,22.8,0001.0,0007.82,0014.97,0007.02
2023-08-22 22:24:00,SystemResetWarning,0833.8,4.99,000.00,027.6,025.9,000.0,035.8,029.4,23.3,0001.3,0007.82,0014.88,0007.03
2023-08-22 22:25:00,SystemResetWarning,0833.8,4.99,000.00,027.6,025.6,000.0,035.8,029.3,22.8,0001.2,0007.89,0014.65,0007.06
2023-08-22 22:26:00,SystemResetWarning,0833.7,5.01,000.00,027.6,024.2,000.0,035.7,029.0,22.5,0001.0,0007.94,0014.70,0007.07
2023-08-22 22:27:00,SystemResetWarning,0833.8,5.01,000.00,027.5,024.1,000.0,035.6,028.9,22.7,0001.1,0007.96,0014.72,0007.06
2023-08-22 22:28:00,SystemResetWarning,0833.8,5.00,000.00,027.5,024.5,000.0,035.6,029.0,23.0,0001.4,0007.99,0014.49,0007.08
2023-08-22 22:29:00,SystemResetWarning,0833.8,4.99,000.00,027.5,024.9,000.0,035.7,029.0,23.2,0001.4,0008.06,0014.32,0007.13
2023-08-22 22:30:00,SystemResetWarning,0833.8,5.00,000.00,027.5,025.4,000.0,035.7,029.2,23.7,0001.6,0008.10,0014.89,0007.15
2023-08-22 22:31:00,SystemResetWarning,0833.8,5.01,000.00,027.6,025.9,000.0,035.8,029.3,24.2,0001.6,0008.16,0015.21,0007.18
2023-08-22 22:32:00,SystemResetWarning,0833.8,5.01,000.00,027.6,026.3,000.0,035.8,029.5,23.5,0001.6,0008.20,0014.85,0007.21
2023-08-22 22:33:00,SystemResetWarning,0833.7,4.98,000.00,027.7,025.9,000.0,035.8,029.4,23.2,0001.7,0008.27,0014.69,0007.26
2023-08-22 22:34:00,SystemResetWarning,0833.8,5.00,000.00,027.6,024.5,000.0,035.7,029.1,23.2,0002.1,0008.31,0014.77,0007.30
2023-08-22 22:35:00,SystemResetWarning,0833.7,5.01,000.00,027.5,024.3,000.0,035.7,029.0,23.9,0002.1,0008.31,0014.96,0007.31
2023-08-22 22:36:00,SystemResetWarning,0833.6,5.00,000.00,027.5,024.7,000.0,035.7,029.1,23.7,0002.0,0008.31,0014.99,0007.30
2023-08-22 22:37:00,SystemResetWarning,0833.5,4.99,000.00,027.5,025.2,000.0,035.7,029.2,23.8,0002.4,0008.31,0014.45,0007.33
2023-08-22 22:38:00,SystemResetWarning,0833.7,5.00,000.00,027.6,025.7,000.0,035.8,029.3,23.0,0002.4,0008.33,0014.40,0007.34
2023-08-22 22:39:00,SystemResetWarning,0833.6,5.01,000.00,027.7,026.1,000.0,035.8,029.5,22.2,0002.2,0008.32,0014.15,0007.34
2023-08-22 22:40:00,SystemResetWarning,0833.7,5.01,000.00,027.7,025.7,000.0,035.8,029.4,21.7,0002.5,0008.27,0013.79,0007.32
2023-08-22 22:41:00,SystemResetWarning,0833.5,4.99,000.00,027.6,024.3,000.0,035.7,029.0,21.8,0002.5,0008.26,0013.38,0007.31
2023-08-22 22:42:00,SystemResetWarning,0833.6,5.00,000.00,027.5,024.2,000.0,035.7,029.0,21.7,0002.5,0008.24,0013.49,0007.31
2023-08-22 22:43:00,SystemResetWarning,0833.7,5.02,000.00,027.5,024.7,000.0,035.7,029.0,21.4,0002.5,0008.26,0013.79,0007.32
2023-08-22 22:44:00,SystemResetWarning,0833.6,4.99,000.00,027.5,025.1,000.0,035.8,029.1,21.5,0002.4,0008.24,0013.91,0007.31
2023-08-22 22:45:00,SystemResetWarning,0833.5,5.00,000.00,027.6,025.6,000.0,035.8,029.3,21.5,0002.3,0008.23,0014.25,0007.30
2023-08-22 22:46:00,SystemResetWarning,0833.6,5.01,000.00,027.6,026.0,000.0,035.8,029.4,21.8,0002.3,0008.28,0014.13,0007.29
2023-08-22 22:47:00,SystemResetWarning,0833.6,4.98,000.00,027.7,025.4,000.0,035.8,029.3,21.8,0002.3,0008.30,0014.16,0007.28
2023-08-22 22:48:00,SystemResetWarning,0833.6,4.99,000.00,027.6,024.1,000.0,035.7,029.0,21.3,0002.1,0008.25,0014.25,0007.25
2023-08-22 22:49:00,SystemResetWarning,0833.7,5.01,000.00,027.5,024.1,000.0,035.7,029.0,20.9,0001.7,0008.19,0014.05,0007.23
2023-08-22 22:50:00,SystemResetWarning,0833.8,5.00,000.00,027.5,024.6,000.0,035.7,029.0,22.3,0001.6,0008.24,0014.19,0007.24
2023-08-22 22:51:00,SystemResetWarning,0833.8,5.00,000.00,027.5,025.0,000.0,035.7,029.1,22.2,0001.6,0008.28,0014.29,0007.24
2023-08-22 22:52:00,SystemResetWarning,0833.8,5.01,000.00,027.5,025.5,000.0,035.8,029.3,21.8,0001.5,0008.28,0015.51,0007.23
2023-08-22 22:53:00,SystemResetWarning,0833.9,5.00,000.00,027.6,026.0,000.0,035.8,029.4,21.0,0001.7,0008.27,0015.98,0007.23
2023-08-22 22:54:00,SystemResetWarning,0833.9,5.00,000.00,027.7,026.1,000.0,035.8,029.4,21.3,0001.7,0008.25,0016.03,0007.22
2023-08-22 22:55:00,SystemResetWarning,0833.9,4.98,000.00,027.6,024.7,000.0,035.7,029.1,21.6,0001.9,0008.24,0016.41,0007.22
2023-08-22 22:56:00,SystemResetWarning,0833.9,5.02,000.00,027.5,024.0,000.0,035.7,029.0,22.4,0001.8,0008.27,0016.56,0007.20
2023-08-22 22:57:00,SystemResetWarning,0833.9,5.01,000.00,027.5,024.4,000.0,035.7,029.0,22.4,0001.5,0008.27,0017.18,0007.20
2023-08-22 22:58:00,SystemResetWarning,0833.9,4.99,000.00,027.5,024.8,000.0,035.7,029.1,22.2,0001.6,0008.25,0017.35,0007.20
2023-08-22 22:59:00,SystemResetWarning,0833.9,5.00,000.00,027.5,025.3,000.0,035.8,029.2,21.9,0001.5,0008.21,0017.20,0007.19
